Location: Poughquag
(41.6090°N, 73.6820°W)
Time: 16:32:59
(UTC-05:00)

N. Korean satellite - Pass Details

Date: 23 January 2020
Orbit: 456 x 505 km, 97.2° (Epoch: 24 February)

Event Time Altitude Azimuth Distance (km) Brightness Sun altitude
Rises 06:17:43 0° 1° (N) 2,530 10.0 -10.8°
Reaches altitude 10° 06:19:54 10° 352° (N) 1,655 9.0 -10.4°
Maximum altitude 06:23:05 32° 288° (WNW) 853 7.2 -9.8°
Drops below altitude 10° 06:26:19 10° 224° (SW) 1,669 9.0 -9.2°
Sets 06:28:32 0° 214° (SW) 2,554 10.1 -8.9°
